Location: Unspecified
(35.6961°N, 0.0000°E)
Time: 18:12:30
(UTC+00:00)

Courier 1B Rocket - Pass Details

Date: 21 May 2019
Orbit: 920 x 1202 km, 28.2° (Epoch: 19 June)

Event Time Altitude Azimuth Distance (km) Brightness Sun altitude
Rises 19:16:08 0° 260° (W) 4,090 9.2 -3.3°
Reaches altitude 10° 19:19:07 10° 255° (WSW) 3,114 8.4 -3.8°
Maximum altitude 19:26:30 48° 183° (S) 1,466 5.8 -5.1°
Drops below altitude 10° 19:33:32 10° 112° (ESE) 2,968 6.9 -6.4°
Enters shadow 19:34:22 - 110° (ESE) 3,234 7.1 -6.5°
